Temperature
17 18 19 19 22 22 23 23 23 23 23 23 22 22 23 24 23 22 20 19 18 18 16 15 14 14 13 13 13 13 12 12 12 12 11 11 11 11 11 11 11 11 11 11 11 11 11 11 11
17 18 18 20 22 22 22 23 23 24 23 21 21 22 23 23 21 20 20 19 18 17 16 15 15 14 13 13 13 12 12 12 12 11 11 11 11 11 11 11 11 11 11 11 11 11 11 11 11
17 18 20 22 22 22 23 23 24 23 22 22 22 22 23 22 20 20 20 19 18 17 16 15 15 14 13 13 13 12 12 12 11 11 11 11 11 11 11 11 11 11 11 11 11 11 11 11 11
17 18 20 22 22 22 23 23 23 23 22 21 23 23 21 20 19 20 20 19 18 17 16 16 15 14 13 13 12 12 12 11 11 11 11 11 11 11 11 11 11 11 11 11 11 11 11 11 11
17 20 22 21 22 22 23 22 22 23 23 22 22 23 22 20 20 20 20 19 18 17 16 15 15 14 13 13 12 12 11 11 11 11 11 10 10 10 11 11 11 10 10 10 11 11 11 11 11
19 21 22 21 22 22 23 21 22 23 23 22 22 23 22 20 20 20 19 19 18 17 16 15 15 14 13 12 12 12 11 11 11 10 10 10 10 10 10 10 10 10 10 10 10 10 10 11 11
20 21 21 22 22 22 22 21 22 23 23 22 22 23 22 19 20 20 19 18 17 17 16 15 14 13 13 12 12 11 11 11 10 10 10 10 10 10 10 10 10 10 10 10 10 10 10 10 10
19 21 21 21 21 22 22 21 21 22 23 21 21 23 23 19 20 19 18 18 17 16 16 15 14 13 12 12 12 11 11 11 10 10 10 10 10 9 9 9 10 10 10 10 10 10 10 10 10
18 21 21 21 21 22 21 21 21 20 21 20 20 21 20 20 20 19 18 18 17 16 16 15 14 13 12 12 11 11 11 10 10 10 10 9 9 9 9 9 9 9 9 9 9 9 9 9 9
19 20 21 21 21 22 21 21 21 21 21 21 20 20 20 20 20 19 19 19 18 17 16 15 14 13 12 12 11 10 10 10 10 10 9 9 9 8 8 9 9 9 9 9 9 9 9 8 8
20 20 21 20 20 20 21 21 20 21 22 22 22 21 20 20 20 19 19 19 19 18 17 16 14 13 12 12 11 10 10 10 10 9 9 9 9 8 8 8 8 8 8 8 8 8 8 8 8
20 20 20 20 19 19 20 20 20 20 21 21 21 20 20 20 20 19 19 18 18 18 17 16 14 13 13 12 11 11 10 10 10 9 9 9 9 8 8 8 8 8 8 8 8 7 7 7 7
19 20 19 19 18 18 19 20 20 20 20 20 20 19 19 19 19 19 18 17 17 17 17 16 15 14 13 12 11 11 10 10 10 9 9 9 9 9 8 8 8 8 8 8 8 7 7 7 7
19 19 19 18 18 18 18 20 19 20 20 19 19 19 19 19 19 18 18 17 17 17 17 16 15 14 13 12 11 11 10 10 10 9 9 9 9 9 8 8 8 8 8 8 7 7 7 7 7
18 19 19 19 18 18 18 19 20 20 19 19 19 19 18 18 18 18 18 18 18 17 17 16 15 14 13 12 11 11 10 10 10 9 9 9 9 9 8 8 8 8 8 8 7 7 7 7 7
18 18 19 19 18 17 18 19 21 19 18 19 19 19 18 18 18 18 18 18 17 17 16 16 15 14 13 12 11 11 10 10 10 10 9 9 9 9 8 8 8 8 8 8 8 7 7 7 7
18 18 19 19 19 18 18 19 21 19 18 19 19 19 19 18 18 18 18 18 17 17 16 16 15 14 13 12 12 11 10 10 10 10 9 9 9 9 9 8 8 8 8 8 8 7 7 7 7
18 18 18 19 19 18 18 19 20 20 19 19 19 19 19 18 18 18 18 18 17 17 16 16 15 14 13 12 11 11 10 10 10 10 9 9 9 9 9 8 8 8 8 8 7 7 7 7 7
19 18 18 19 19 17 18 19 20 20 19 19 19 20 19 19 19 18 18 18 18 17 16 16 15 14 13 12 11 11 10 10 10 10 9 9 9 9 9 9 8 8 8 8 7 7 7 7 7
18 17 18 18 18 17 18 18 19 20 20 19 19 20 20 19 18 18 18 18 18 17 17 16 15 14 14 13 12 11 10 10 10 10 10 9 9 9 9 8 8 8 8 8 7 7 7 7 7
17 17 18 18 18 17 16 18 19 20 19 18 18 18 18 18 18 17 18 18 18 17 17 16 15 14 14 13 12 11 10 10 10 10 10 9 9 9 9 9 8 8 8 8 8 7 7 6 7
17 18 17 17 17 17 17 17 19 20 19 20 19 19 18 17 16 16 17 17 17 17 17 16 15 14 13 13 12 11 11 10 10 10 10 10 9 9 9 9 8 8 8 8 8 7 7 7 6
17 17 16 16 16 17 17 16 18 19 19 20 21 19 18 16 15 15 16 17 17 17 16 16 15 14 13 12 12 11 11 10 10 10 10 10 9 9 9 9 9 8 8 8 8 7 7 7 6
16 15 15 15 16 15 17 17 18 20 20 20 20 19 17 15 14 14 14 15 16 16 16 15 14 14 13 12 12 11 11 11 10 10 10 10 9 9 9 9 9 8 8 8 7 7 7 6 6
16 16 15 15 15 16 17 16 18 20 20 19 19 18 17 15 13 13 13 14 15 15 15 15 14 14 13 12 12 11 11 11 11 10 10 10 10 9 9 9 8 8 8 7 7 7 6 6 6
16 16 16 16 16 17 15 16 19 20 19 17 16 16 15 14 13 13 13 14 14 15 15 14 14 13 13 12 12 11 11 11 10 10 10 10 10 9 9 9 8 8 8 7 7 6 6 6 5
15 16 17 17 16 16 17 17 18 19 19 18 18 16 15 14 13 13 12 13 13 14 14 14 14 13 13 12 12 11 11 11 11 10 10 10 10 9 9 9 8 8 7 7 6 6 6 5 5
17 16 15 15 15 15 17 17 18 19 20 20 19 18 16 14 13 12 12 12 13 13 14 13 13 13 13 12 12 11 11 11 10 10 10 10 10 9 9 8 8 7 7 7 6 6 5 5 4
14 15 16 16 16 16 16 18 19 19 19 19 19 17 15 14 13 13 12 12 13 13 13 13 13 12 12 12 12 11 11 11 10 10 10 10 9 9 9 8 8 7 7 6 6 5 5 4 4
16 16 16 15 15 16 16 18 19 18 18 17 17 16 15 14 14 13 13 13 13 13 13 13 13 12 12 12 11 11 11 10 10 10 10 9 9 9 8 8 7 7 6 6 5 5 4 4 4
Wind_Speed
2 2 3 3 5 6 8 6 5 7 6 4 4 3 2 1 1 3 5 12 13 18 20 20 18 17 16 15 15 14 13 13 13 13 13 13 12 12 12 13 13 14 14 14 14 15 15 15 15
2 2 4 4 7 8 8 8 8 7 5 5 5 5 4 3 3 6 8 13 15 20 20 20 19 18 17 16 15 15 14 14 13 13 13 12 12 12 12 12 13 13 14 13 13 14 14 14 15
2 3 4 5 7 9 6 8 9 6 5 6 6 3 1 4 5 7 8 16 17 19 18 19 20 19 17 16 16 15 14 14 13 13 13 12 12 12 12 12 12 12 13 13 13 13 13 13 13
4 4 5 8 10 8 4 5 6 8 7 5 5 4 3 3 3 6 13 17 18 19 18 20 20 19 18 17 16 15 14 14 13 13 13 12 12 12 11 11 11 12 12 12 12 12 12 12 12
3 5 8 10 10 6 5 3 5 10 9 8 7 4 6 5 4 8 15 17 18 18 18 20 20 19 18 17 16 15 14 14 14 13 13 12 12 11 11 11 11 11 11 11 11 10 10 10 10
4 5 9 11 10 6 5 4 7 10 9 7 7 5 5 6 7 10 15 15 17 17 18 19 20 19 18 17 16 15 14 14 14 13 13 12 11 11 10 10 9 9 9 9 9 9 9 9 9
5 7 9 9 9 8 4 4 8 10 11 8 6 6 5 8 7 11 14 14 15 17 17 17 19 19 18 18 16 16 15 14 14 14 13 12 11 10 10 9 8 8 8 8 8 8 8 8 8
3 5 8 8 9 7 4 4 4 7 8 4 5 6 4 8 10 12 13 13 14 15 15 16 18 18 18 17 17 16 15 15 14 14 14 13 11 10 9 8 7 6 6 6 5 5 6 6 6
3 7 9 8 7 5 4 4 3 2 4 5 4 1 4 10 13 14 13 12 14 15 15 16 16 17 17 16 17 16 16 15 15 14 15 13 10 9 8 7 6 5 4 4 4 4 4 3 3
6 11 10 4 4 3 3 3 4 5 7 7 6 4 6 11 14 16 17 18 18 19 18 16 16 16 16 15 16 15 14 14 13 13 13 10 8 6 6 7 5 4 3 2 2 2 1 2 1
7 11 9 6 4 3 3 4 4 6 9 10 10 10 11 12 14 17 18 19 19 19 18 17 16 17 16 14 14 12 12 13 12 12 12 9 8 7 6 6 6 5 4 3 2 3 1 2 2
8 8 7 6 5 4 5 4 6 11 12 8 8 7 12 15 17 19 19 18 18 18 19 18 17 16 17 15 14 13 12 12 11 12 13 10 7 7 6 5 4 4 3 3 3 3 2 3 4
12 9 7 6 6 6 7 11 11 13 14 11 8 9 13 16 18 18 17 16 17 18 19 19 18 17 16 15 13 13 13 12 13 12 13 12 9 7 7 6 5 5 4 4 4 4 4 5 5
9 9 8 7 8 6 9 14 10 15 13 12 12 14 15 16 17 16 16 17 18 19 19 19 20 19 17 14 13 13 13 13 13 13 13 13 10 9 7 7 6 6 5 5 5 5 5 5 6
5 8 10 10 9 6 6 14 15 16 11 13 14 14 14 16 16 17 18 18 19 19 19 20 20 19 18 17 15 13 14 14 13 13 14 14 12 10 8 6 6 6 6 6 5 5 5 5 6
6 9 12 9 7 6 8 16 11 6 8 12 13 13 13 14 16 17 17 17 17 17 18 19 17 19 19 17 15 13 14 14 13 13 13 14 13 11 9 7 6 6 5 5 5 4 5 5 6
10 12 13 9 7 6 10 13 10 5 9 13 14 13 13 13 15 16 16 16 17 17 18 19 20 20 19 17 15 14 13 13 12 12 12 13 12 11 10 7 7 7 5 5 4 4 5 5 6
12 13 12 11 5 8 11 16 16 14 14 17 17 16 15 15 17 15 15 16 16 17 18 19 20 20 19 15 12 10 10 10 11 11 12 12 11 11 10 7 7 6 5 4 4 4 4 4 5
13 13 15 13 7 8 15 20 20 19 17 19 19 19 18 18 16 13 13 14 15 16 18 19 20 20 17 14 13 12 11 10 8 9 11 12 11 11 10 7 7 6 5 5 4 4 4 4 4
17 18 17 14 8 8 15 22 22 20 21 21 21 21 20 18 15 13 14 14 16 17 18 19 20 20 19 16 14 12 11 8 8 8 10 11 11 11 10 8 6 6 5 5 4 4 3 2 2
21 21 19 17 12 11 14 19 18 14 15 16 18 19 19 18 18 16 16 16 16 17 18 17 20 20 20 18 13 10 8 6 6 8 7 10 11 11 10 9 7 6 5 5 4 4 4 3 2
22 18 17 16 15 14 9 14 15 14 16 17 17 16 16 15 16 16 16 17 17 16 16 18 19 20 19 18 16 18 13 11 11 10 9 9 10 10 10 9 8 7 5 5 4 4 3 3 3
17 10 13 14 16 18 16 13 14 11 15 15 13 11 11 11 13 15 16 16 16 15 15 16 18 19 19 19 19 19 16 13 10 10 11 10 9 9 10 9 8 7 5 5 5 4 4 3 3
10 6 4 6 10 17 18 15 13 10 12 12 9 7 7 7 10 12 13 13 13 14 14 15 17 18 18 19 19 19 18 15 14 13 12 10 8 7 9 9 8 7 6 6 5 5 5 4 4
15 12 8 9 10 12 7 11 12 12 12 12 13 12 9 6 8 10 13 15 15 16 16 16 18 18 18 19 18 18 18 17 17 15 13 11 9 8 10 9 8 7 7 6 6 5 5 5 5
21 21 14 10 10 8 6 11 10 10 10 11 12 11 9 6 7 10 13 15 15 16 17 17 18 18 18 18 17 16 16 13 12 14 12 12 10 9 11 10 9 8 8 7 6 5 5 5 5
16 19 20 14 10 10 10 9 10 11 11 9 8 7 7 6 7 10 12 14 15 16 17 18 18 18 18 18 17 16 16 14 13 13 12 10 9 9 11 10 9 8 8 7 6 5 5 5 5
15 14 10 12 10 13 13 15 10 11 12 9 6 5 5 4 6 9 11 13 14 14 15 16 17 17 17 17 15 12 14 14 13 12 13 11 11 11 11 10 9 8 7 7 6 5 5 6 6
16 18 13 13 13 10 11 9 8 12 9 6 5 5 4 4 6 9 11 12 13 13 14 15 16 16 16 16 15 15 14 13 13 12 13 12 11 12 12 11 10 9 8 7 6 6 6 7 7
23 23 23 17 14 13 13 10 5 8 7 6 6 4 3 3 5 8 10 12 13 14 15 15 15 16 16 15 15 15 14 13 13 13 13 13 12 12 11 10 10 9 8 8 7 7 7 8 8
Wind_Direction
236 264 238 215 207 217 217 191 184 170 177 167 157 183 187 163 8 72 112 151 148 155 159 161 161 159 157 149 142 136 131 126 118 112 105 99 94 88 84 80 76 74 73 72 70 68 68 67 66
235 223 210 213 218 212 203 196 193 183 149 141 156 167 169 135 82 108 139 156 155 156 159 162 160 160 156 151 146 139 136 130 122 116 110 104 98 93 88 83 80 77 75 73 72 71 68 67 66
192 231 210 202 220 219 195 188 192 168 159 169 161 174 181 127 131 137 144 155 157 158 161 158 161 160 157 152 146 143 140 134 128 121 114 108 102 97 92 88 84 81 78 76 74 71 69 67 66
199 196 211 221 217 217 215 175 179 177 174 190 182 169 153 90 112 126 142 156 159 160 162 159 165 162 158 153 150 146 144 138 134 127 118 112 107 102 97 93 89 85 82 79 76 73 70 67 65
217 203 206 217 217 208 216 215 190 193 185 186 198 185 153 123 106 134 152 161 162 161 163 161 167 164 160 157 155 151 147 144 139 132 125 119 113 108 104 99 94 89 85 81 79 75 71 67 63
197 209 214 213 207 207 211 203 198 202 189 183 199 202 154 129 145 151 159 165 165 163 164 162 167 168 164 161 160 158 155 150 143 137 131 126 121 117 111 104 97 92 88 82 78 76 72 68 63
212 210 221 217 210 208 200 188 206 201 199 193 196 209 164 151 143 153 162 165 167 166 167 167 170 172 170 166 165 163 161 156 150 143 138 133 130 124 117 111 105 99 93 87 82 77 73 69 63
236 216 217 215 211 205 177 182 211 214 209 169 197 221 184 145 142 151 158 165 170 172 174 173 174 176 174 172 167 164 163 160 155 149 144 140 138 131 124 124 114 106 98 91 86 82 77 69 61
220 225 220 213 211 196 169 185 171 209 183 176 203 239 85 128 144 151 159 169 176 180 181 180 179 179 177 175 170 167 165 162 159 156 150 151 152 144 144 128 132 126 114 102 88 80 81 82 88
212 227 225 215 211 195 181 209 185 190 203 202 199 175 138 153 164 170 175 179 183 186 187 185 183 181 178 175 175 178 175 170 174 167 163 164 158 152 146 145 160 157 153 145 109 89 150 261 11
215 233 229 220 220 234 232 234 213 223 229 227 224 206 174 178 187 192 192 189 189 187 187 188 186 184 181 179 180 179 177 175 178 174 168 169 164 163 172 173 177 184 194 196 180 222 267 318 339
220 228 227 226 207 220 242 245 236 235 248 253 250 227 188 194 200 203 202 196 190 188 191 191 189 187 187 184 182 181 179 178 177 177 177 175 177 182 185 195 196 205 211 226 242 265 275 289 297
225 229 223 232 223 235 248 249 259 254 256 260 252 226 217 213 212 212 209 200 193 192 192 193 192 190 189 188 186 185 185 185 182 180 185 186 187 192 194 203 207 218 226 232 245 258 271 281 290
228 230 230 232 233 232 247 260 254 257 259 255 246 240 234 228 222 214 207 203 199 197 193 193 194 193 191 190 190 189 189 188 187 186 191 193 196 198 202 208 212 222 229 239 253 265 277 285 290
213 231 241 235 234 233 242 258 247 258 256 254 251 248 242 236 227 220 212 207 202 199 194 193 194 194 194 194 194 191 191 191 191 191 194 195 200 203 204 210 211 220 228 238 250 258 268 280 285
202 231 243 230 218 205 222 260 259 252 244 259 262 256 245 236 229 224 218 212 205 199 195 193 191 195 195 196 194 192 193 193 193 192 194 198 201 201 202 206 213 216 219 232 246 260 268 276 285
219 235 240 241 215 209 227 263 267 247 256 269 269 260 249 241 232 224 216 210 205 200 195 193 192 194 195 195 193 193 191 192 192 191 194 198 198 198 201 208 209 203 209 226 239 257 275 286 294
224 234 241 245 220 217 242 262 272 272 266 269 269 262 251 243 236 224 212 207 203 200 197 194 191 193 192 191 190 189 189 190 188 190 193 192 194 195 200 203 202 199 209 221 234 251 264 285 298
240 242 249 254 245 245 263 272 276 277 270 265 263 258 251 245 239 219 206 201 197 196 196 194 191 190 187 186 186 186 188 186 185 187 188 188 190 191 195 195 196 200 214 222 231 249 260 274 301
234 244 254 266 255 254 276 278 278 273 268 263 262 259 253 247 231 212 201 196 194 193 193 192 190 188 187 187 186 188 183 183 179 176 182 185 187 188 191 193 194 195 203 208 214 230 255 262 289
231 240 250 259 269 257 283 280 269 267 264 262 259 257 255 245 233 215 202 197 193 192 190 188 188 186 186 184 178 168 162 158 170 177 179 183 184 185 186 192 192 190 197 202 205 216 235 252 250
234 234 246 256 266 273 272 288 283 276 273 267 262 255 251 243 233 219 203 196 193 190 185 185 184 184 184 181 181 180 184 186 188 183 178 175 178 180 181 183 184 183 188 192 196 207 220 229 243
233 228 230 247 260 270 260 270 278 271 268 271 269 264 257 245 230 217 205 196 189 182 179 180 180 182 183 184 186 188 191 189 179 173 172 172 170 174 175 175 175 178 183 186 183 191 203 220 240
184 148 178 228 253 260 254 251 274 255 258 275 282 282 278 253 229 215 201 189 181 175 175 176 178 181 182 185 188 191 190 181 173 174 173 172 167 170 174 174 176 178 179 181 185 194 205 221 230
191 207 226 234 232 250 227 237 258 256 256 269 281 288 290 262 225 204 190 184 179 176 176 176 178 180 182 185 189 191 189 184 182 180 179 174 172 174 176 175 178 178 178 180 186 197 209 220 230
201 207 216 232 242 247 199 236 255 262 268 268 270 277 279 253 218 201 193 187 182 179 178 178 180 180 182 185 188 188 185 186 185 183 179 180 180 177 173 176 178 177 177 181 191 202 213 225 234
196 213 226 246 262 266 246 246 271 269 263 258 266 270 267 244 215 201 192 188 183 182 182 181 180 181 182 184 184 184 184 183 179 177 176 177 174 168 172 175 176 177 181 188 196 213 218 228 238
208 195 196 217 238 246 251 246 245 247 256 267 281 287 280 236 208 198 192 189 185 184 182 182 183 182 182 182 182 182 183 180 175 172 174 173 170 168 171 176 179 181 186 194 204 216 224 233 240
191 196 203 212 227 238 251 244 222 235 246 259 278 295 286 233 204 195 191 187 184 181 181 183 183 182 182 183 182 180 179 176 174 175 175 172 170 172 175 178 181 186 193 199 209 220 225 236 245
205 204 204 211 217 229 248 253 194 227 241 249 266 287 281 224 199 192 188 184 184 184 184 185 185 185 184 182 181 180 176 174 176 177 175 173 173 176 178 179 184 190 196 204 215 224 230 240 249
Height
1530 1532 1534 1537 1536 1533 1531 1529 1528 1530 1531 1533 1534 1535 1534 1534 1536 1542 1542 1540 1541 1542 1544 1546 1548 1551 1552 1554 1555 1556 1557 1557 1557 1557 1557 1557 1557 1557 1557 1557 1556 1556 1555 1555 1555 1554 1554 1553 1552
1530 1532 1536 1536 1532 1534 1531 1527 1528 1528 1531 1534 1535 1536 1535 1536 1538 1539 1539 1540 1541 1543 1545 1547 1549 1551 1552 1554 1555 1556 1557 1558 1558 1558 1558 1558 1558 1558 1557 1557 1557 1556 1556 1556 1555 1555 1554 1554 1553
1531 1532 1536 1531 1529 1528 1527 1525 1526 1530 1532 1533 1534 1535 1535 1536 1538 1539 1539 1540 1541 1543 1545 1547 1549 1551 1553 1554 1556 1557 1558 1558 1559 1559 1559 1559 1559 1558 1558 1558 1558 1557 1557 1556 1556 1556 1555 1555 1554
1532 1534 1534 1528 1527 1525 1524 1524 1527 1529 1532 1533 1533 1534 1536 1537 1538 1538 1539 1540 1541 1543 1545 1547 1549 1551 1553 1554 1556 1557 1558 1559 1559 1559 1560 1560 1559 1559 1559 1559 1558 1558 1558 1557 1557 1557 1556 1556 1555
1531 1532 1528 1527 1525 1524 1524 1527 1528 1527 1529 1531 1533 1532 1535 1536 1536 1537 1539 1540 1542 1543 1545 1547 1549 1551 1553 1554 1556 1557 1558 1559 1559 1560 1560 1560 1560 1560 1560 1560 1559 1559 1559 1558 1558 1557 1557 1557 1556
1532 1528 1526 1526 1524 1523 1524 1527 1527 1526 1528 1530 1532 1532 1534 1535 1536 1537 1539 1540 1542 1544 1545 1547 1548 1551 1552 1554 1556 1557 1558 1559 1560 1560 1560 1561 1561 1561 1560 1560 1560 1560 1560 1559 1559 1558 1558 1557 1557
1530 1525 1523 1522 1523 1523 1524 1526 1526 1525 1526 1529 1530 1530 1532 1534 1535 1536 1538 1540 1542 1543 1545 1546 1548 1550 1552 1554 1555 1557 1558 1559 1560 1560 1561 1561 1561 1561 1561 1561 1561 1561 1560 1560 1560 1559 1559 1558 1558
1528 1525 1523 1522 1523 1522 1524 1525 1525 1525 1525 1528 1530 1529 1530 1533 1533 1535 1537 1539 1541 1542 1544 1546 1547 1549 1551 1553 1555 1556 1557 1559 1560 1560 1561 1561 1561 1561 1561 1561 1561 1561 1561 1561 1560 1560 1559 1559 1558
1528 1526 1522 1522 1522 1521 1523 1524 1525 1525 1526 1527 1528 1529 1529 1530 1531 1533 1535 1536 1538 1540 1542 1544 1546 1548 1550 1552 1554 1555 1557 1558 1559 1560 1560 1561 1562 1562 1562 1562 1562 1561 1561 1561 1561 1560 1559 1559 1558
1526 1523 1520 1521 1521 1521 1523 1523 1524 1525 1524 1525 1526 1526 1527 1528 1529 1531 1532 1533 1535 1537 1539 1541 1544 1546 1548 1550 1552 1554 1556 1557 1559 1560 1560 1561 1562 1562 1562 1562 1562 1561 1561 1561 1560 1560 1559 1559 1559
1523 1520 1519 1521 1522 1522 1522 1523 1523 1522 1521 1522 1523 1524 1524 1526 1527 1528 1529 1530 1532 1534 1536 1538 1541 1543 1546 1548 1550 1552 1554 1556 1557 1559 1559 1560 1561 1561 1562 1562 1562 1562 1561 1561 1560 1560 1560 1559 1558
1521 1520 1520 1520 1521 1522 1521 1521 1521 1520 1520 1520 1521 1522 1522 1522 1523 1524 1525 1527 1529 1531 1533 1535 1538 1540 1543 1545 1547 1550 1552 1553 1555 1556 1558 1559 1560 1561 1561 1561 1562 1561 1561 1561 1560 1560 1559 1558 1558
1518 1518 1519 1520 1520 1520 1520 1519 1518 1516 1517 1517 1517 1517 1517 1518 1519 1520 1522 1524 1525 1527 1529 1532 1534 1537 1540 1542 1545 1547 1549 1551 1553 1554 1556 1557 1558 1559 1560 1560 1560 1560 1560 1560 1560 1559 1559 1558 1557
1515 1516 1517 1517 1518 1518 1518 1515 1516 1511 1513 1513 1512 1512 1512 1513 1514 1515 1516 1518 1520 1523 1525 1528 1530 1533 1536 1539 1541 1544 1546 1549 1551 1552 1554 1555 1557 1558 1558 1559 1559 1559 1559 1559 1558 1558 1557 1556 1555
1515 1515 1514 1514 1515 1515 1516 1511 1508 1507 1508 1508 1507 1507 1507 1507 1508 1509 1511 1513 1515 1518 1521 1524 1526 1529 1532 1535 1538 1541 1544 1546 1548 1550 1552 1553 1554 1555 1556 1557 1557 1557 1557 1557 1557 1556 1555 1554 1553
1513 1513 1512 1508 1511 1512 1515 1506 1501 1503 1504 1503 1502 1502 1501 1501 1502 1503 1505 1508 1510 1513 1516 1519 1522 1525 1528 1532 1535 1538 1541 1543 1545 1547 1549 1551 1552 1553 1554 1554 1555 1555 1555 1555 1555 1554 1553 1552 1551
1509 1508 1507 1506 1507 1508 1508 1502 1498 1500 1500 1499 1497 1496 1496 1496 1496 1497 1499 1502 1504 1507 1511 1514 1517 1520 1524 1528 1531 1535 1538 1540 1542 1544 1546 1548 1549 1551 1552 1552 1553 1553 1553 1553 1553 1552 1551 1551 1549
1504 1504 1505 1504 1503 1505 1504 1498 1495 1495 1496 1493 1492 1491 1490 1490 1490 1492 1493 1496 1498 1502 1505 1508 1511 1515 1519 1523 1527 1531 1534 1537 1539 1541 1543 1545 1547 1548 1549 1550 1550 1550 1551 1550 1550 1550 1548 1548 1546
1498 1501 1501 1499 1500 1503 1498 1493 1489 1488 1488 1486 1484 1483 1482 1482 1484 1486 1487 1489 1492 1495 1498 1502 1505 1509 1513 1517 1521 1525 1529 1533 1535 1538 1540 1542 1544 1545 1546 1547 1547 1548 1548 1548 1548 1547 1546 1545 1543
1498 1500 1498 1496 1499 1501 1494 1488 1482 1481 1479 1478 1476 1474 1474 1475 1477 1478 1480 1482 1485 1488 1492 1496 1499 1503 1507 1512 1516 1521 1525 1529 1532 1534 1537 1539 1541 1542 1543 1544 1545 1545 1545 1545 1545 1544 1544 1542 1541
1495 1495 1495 1496 1494 1496 1496 1483 1474 1471 1471 1470 1468 1466 1466 1467 1468 1470 1472 1475 1478 1482 1486 1490 1494 1498 1503 1508 1512 1517 1521 1525 1528 1530 1533 1535 1537 1539 1540 1541 1542 1542 1542 1542 1542 1541 1541 1540 1539
1489 1489 1493 1495 1497 1491 1493 1485 1470 1465 1464 1462 1460 1458 1458 1458 1460 1462 1464 1467 1471 1476 1480 1485 1489 1493 1498 1503 1507 1511 1514 1518 1522 1526 1529 1532 1534 1535 1537 1537 1538 1538 1539 1539 1538 1538 1538 1537 1536
1482 1486 1492 1494 1494 1491 1487 1488 1467 1460 1459 1453 1451 1451 1451 1452 1453 1455 1457 1461 1466 1470 1475 1479 1484 1488 1493 1498 1502 1507 1512 1515 1519 1522 1525 1528 1530 1532 1533 1534 1535 1535 1535 1536 1535 1535 1535 1534 1533
1484 1490 1495 1495 1492 1490 1478 1481 1463 1454 1450 1446 1446 1447 1447 1447 1447 1449 1451 1455 1460 1464 1469 1474 1479 1483 1488 1493 1498 1502 1507 1511 1514 1517 1521 1523 1526 1528 1529 1530 1531 1532 1532 1532 1532 1532 1531 1531 1530
1480 1485 1492 1490 1488 1477 1472 1475 1457 1444 1444 1444 1444 1444 1443 1443 1442 1443 1446 1449 1454 1459 1464 1469 1474 1478 1483 1488 1493 1498 1503 1507 1510 1513 1516 1519 1521 1523 1525 1527 1528 1528 1529 1529 1529 1528 1528 1527 1526
1470 1473 1479 1480 1474 1466 1476 1468 1447 1440 1442 1442 1442 1441 1439 1439 1438 1439 1441 1445 1449 1454 1459 1464 1469 1474 1479 1484 1489 1494 1498 1502 1506 1509 1513 1515 1518 1520 1522 1523 1524 1525 1525 1525 1525 1525 1524 1524 1523
1465 1466 1463 1468 1468 1471 1459 1452 1445 1438 1436 1437 1437 1437 1436 1435 1435 1436 1438 1442 1446 1450 1455 1460 1465 1470 1475 1479 1485 1489 1494 1498 1502 1505 1509 1511 1514 1516 1518 1519 1520 1521 1522 1522 1522 1521 1520 1520 1519
1453 1457 1467 1470 1470 1467 1453 1448 1442 1433 1430 1431 1432 1433 1432 1432 1432 1433 1435 1439 1443 1448 1453 1457 1462 1466 1471 1476 1480 1485 1489 1493 1497 1501 1504 1507 1509 1512 1514 1515 1516 1517 1518 1518 1518 1517 1516 1516 1514
1452 1456 1454 1456 1454 1454 1450 1440 1428 1427 1427 1429 1430 1430 1430 1429 1430 1431 1433 1436 1440 1445 1449 1453 1458 1463 1467 1472 1476 1481 1485 1489 1493 1497 1500 1503 1505 1507 1509 1511 1512 1513 1513 1513 1513 1513 1512 1511 1510
1437 1438 1443 1449 1448 1446 1442 1433 1422 1426 1427 1428 1428 1428 1427 1427 1428 1429 1431 1434 1437 1441 1445 1450 1454 1459 1463 1468 1472 1476 1481 1485 1488 1492 1495 1498 1501 1503 1505 1506 1507 1508 1509 1509 1509 1508 1508 1506 1505